TimeCST,TemperatureF,Dew PointF,Humidity,Sea Level PressureIn,VisibilityMPH,Wind Direction,Wind SpeedMPH,Gust SpeedMPH,PrecipitationIn,Events,Conditions,WindDirDegrees,DateUTC
12:10 AM,48.2,48.2,100,30.15,0.5,Calm,Calm,-,N/A,Fog,Fog,0,2014-02-09 06:10:00
12:34 AM,48.2,46.4,93,30.15,2.0,Calm,Calm,-,N/A,,Overcast,0,2014-02-09 06:34:00
12:51 AM,48.9,46.9,93,30.14,2.0,Calm,Calm,-,N/A,Fog,Patches of Fog,0,2014-02-09 06:51:00
1:04 AM,50.0,48.2,94,30.13,0.5,Calm,Calm,-,N/A,,Overcast,0,2014-02-09 07:04:00
1:13 AM,50.0,48.2,94,30.13,0.2,Calm,Calm,-,N/A,Fog,Fog,0,2014-02-09 07:13:00
1:22 AM,50.0,46.4,87,30.13,0.1,Calm,Calm,-,N/A,Fog,Fog,0,2014-02-09 07:22:00
1:51 AM,50.0,48.0,93,30.13,0.1,South,3.5,-,N/A,Fog,Fog,190,2014-02-09 07:51:00
2:35 AM,50.0,46.4,87,30.11,0.1,Calm,Calm,-,N/A,Fog,Fog,0,2014-02-09 08:35:00
2:51 AM,50.0,48.0,93,30.12,0.1,Calm,Calm,-,N/A,Fog,Fog,0,2014-02-09 08:51:00
3:11 AM,48.2,46.4,93,30.11,0.1,Calm,Calm,-,N/A,Fog,Fog,0,2014-02-09 09:11:00
3:51 AM,48.9,48.0,97,30.09,0.2,Calm,Calm,-,N/A,Fog,Fog,0,2014-02-09 09:51:00
4:28 AM,48.2,46.4,93,30.10,0.2,Calm,Calm,-,N/A,Fog,Fog,0,2014-02-09 10:28:00
4:39 AM,48.2,46.4,93,30.10,0.2,Calm,Calm,-,N/A,,Overcast,0,2014-02-09 10:39:00
4:51 AM,48.9,46.9,93,30.09,0.2,NNW,4.6,-,N/A,,Overcast,340,2014-02-09 10:51:00
5:17 AM,48.2,46.4,93,30.09,0.2,North,8.1,-,N/A,,Overcast,10,2014-02-09 11:17:00
5:41 AM,48.2,46.4,93,30.09,0.2,NNE,4.6,-,N/A,,Overcast,20,2014-02-09 11:41:00
5:44 AM,48.2,46.4,93,30.09,2.5,NNE,5.8,-,N/A,,Overcast,20,2014-02-09 11:44:00
5:51 AM,48.9,46.9,93,30.09,4.0,Calm,Calm,-,N/A,,Mostly Cloudy,0,2014-02-09 11:51:00
6:14 AM,48.2,46.4,93,30.10,6.0,Calm,Calm,-,N/A,,Overcast,0,2014-02-09 12:14:00
6:51 AM,48.9,46.9,93,30.11,5.0,NNE,5.8,-,N/A,,Overcast,20,2014-02-09 12:51:00
7:07 AM,48.2,46.4,93,30.11,4.0,NE,4.6,-,N/A,,Overcast,40,2014-02-09 13:07:00
7:51 AM,50.0,46.9,89,30.12,5.0,NE,4.6,-,N/A,,Mostly Cloudy,50,2014-02-09 13:51:00
8:51 AM,52.0,48.0,86,30.13,5.0,NNE,4.6,-,N/A,,Overcast,30,2014-02-09 14:51:00
9:51 AM,55.0,50.0,83,30.14,7.0,ENE,3.5,-,N/A,,Overcast,60,2014-02-09 15:51:00
10:29 AM,57.2,50.0,77,30.13,7.0,Calm,Calm,-,N/A,,Overcast,0,2014-02-09 16:29:00
10:51 AM,57.9,51.1,78,30.14,9.0,Calm,Calm,-,N/A,,Overcast,0,2014-02-09 16:51:00
11:49 AM,62.6,51.8,68,30.12,10.0,NNE,3.5,-,N/A,,Overcast,30,2014-02-09 17:49:00
11:51 AM,62.1,52.0,70,30.12,10.0,NE,3.5,-,N/A,,Overcast,50,2014-02-09 17:51:00
12:51 PM,64.9,54.0,68,30.09,10.0,ENE,4.6,-,N/A,,Overcast,60,2014-02-09 18:51:00
1:22 PM,66.2,57.2,73,30.07,10.0,Variable,3.5,-,N/A,,Mostly Cloudy,0,2014-02-09 19:22:00
1:51 PM,69.1,57.0,65,30.06,10.0,Variable,5.8,-,N/A,,Mostly Cloudy,0,2014-02-09 19:51:00
2:23 PM,69.8,57.2,64,30.04,10.0,ESE,9.2,-,N/A,,Mostly Cloudy,110,2014-02-09 20:23:00
2:51 PM,68.0,57.0,68,30.03,10.0,ESE,10.4,-,N/A,,Mostly Cloudy,110,2014-02-09 20:51:00
2:57 PM,68.0,57.2,68,30.02,10.0,ESE,9.2,-,N/A,,Scattered Clouds,110,2014-02-09 20:57:00
3:17 PM,66.2,57.2,73,30.02,10.0,ESE,12.7,-,N/A,,Mostly Cloudy,120,2014-02-09 21:17:00
3:29 PM,66.2,57.2,73,30.02,10.0,ESE,10.4,-,N/A,,Mostly Cloudy,120,2014-02-09 21:29:00
3:51 PM,66.0,57.0,73,30.01,10.0,East,9.2,-,N/A,,Mostly Cloudy,100,2014-02-09 21:51:00
4:51 PM,64.9,57.0,75,30.00,10.0,ESE,9.2,-,N/A,,Mostly Cloudy,120,2014-02-09 22:51:00
5:51 PM,64.0,59.0,84,30.00,7.0,ESE,8.1,-,N/A,,Overcast,110,2014-02-09 23:51:00
6:35 PM,62.6,57.2,82,29.99,7.0,ESE,8.1,-,N/A,,Overcast,120,2014-02-10 00:35:00
6:51 PM,63.0,59.0,87,29.99,4.0,ESE,6.9,-,N/A,,Overcast,120,2014-02-10 00:51:00
7:08 PM,60.8,57.2,88,29.99,1.0,East,6.9,-,N/A,,Overcast,80,2014-02-10 01:08:00
7:16 PM,60.8,57.2,88,29.99,0.8,East,5.8,-,N/A,,Overcast,90,2014-02-10 01:16:00
7:51 PM,60.1,57.0,90,29.99,0.5,East,5.8,-,N/A,Fog,Fog,100,2014-02-10 01:51:00
7:58 PM,60.8,57.2,88,29.99,0.1,ESE,5.8,-,N/A,Fog,Fog,120,2014-02-10 01:58:00
8:51 PM,60.1,57.9,93,30.00,0.1,ESE,3.5,-,N/A,Fog,Fog,110,2014-02-10 02:51:00
9:47 PM,62.6,59.0,88,29.99,0.5,SSE,6.9,-,N/A,Fog,Fog,160,2014-02-10 03:47:00
9:51 PM,63.0,60.1,90,29.99,2.0,SSE,8.1,-,N/A,,Mostly Cloudy,150,2014-02-10 03:51:00
9:55 PM,62.6,60.8,94,29.99,7.0,SSE,8.1,-,N/A,,Mostly Cloudy,160,2014-02-10 03:55:00
10:51 PM,63.0,61.0,93,29.98,8.0,SSE,9.2,-,N/A,,Mostly Cloudy,160,2014-02-10 04:51:00
10:54 PM,62.6,60.8,94,29.98,8.0,SSE,8.1,-,N/A,,Overcast,160,2014-02-10 04:54:00
11:02 PM,62.6,60.8,94,29.98,8.0,SSE,8.1,-,N/A,,Overcast,160,2014-02-10 05:02:00
11:08 PM,62.6,60.8,94,29.98,8.0,SSE,6.9,-,N/A,,Mostly Cloudy,150,2014-02-10 05:08:00
11:45 PM,64.4,62.6,94,29.98,7.0,SSE,8.1,-,N/A,,Overcast,150,2014-02-10 05:45:00
11:51 PM,66.0,63.0,90,29.98,7.0,SSE,10.4,-,N/A,,Overcast,160,2014-02-10 05:51:00